Home   Weather   Memphis   Past weeks

Flag for USA Past Weather in Memphis, Tennessee, USA — Yesterday and Last 2 Weeks

Now
66 °F

Passing clouds.


Feels Like: 66 °F
Forecast: 36 / 52 °F
Wind: 6 mph from West

Location: Memphis International Airport

Current Time: Feb 24, 2017 at 6:56:23 pm

Latest Report: Feb 24, 2017 at 5:54 pm


Visibility: 10 mi

Pressure: 29.70 "Hg

Humidity: 68%

Dew Point: 55 °F

Location of MemphisLocation

Past Weather in Memphis — Graph

°F

Memphis Temperature Yesterday

Maximum temperature yesterday: 77 °F (at 1:54 pm)
Minimum temperature yesterday: 54 °F (at 5:54 am)
Average temperature yesterday: 66 °F

High & Low Weather Summary for the Past Weeks

 TemperatureHumidityPressure
High78 °F (Feb 11, 2:31 pm)100% (Feb 19, 2:54 am)30.39 "Hg (Feb 19, 2:54 am)
Low34 °F (Feb 16, 5:54 am)19% (Feb 13, 2:54 pm)29.65 "Hg (Feb 23, 6:54 pm)
Average59 °F65%29.97 "Hg
* Reported Feb 9 5:54 pm — Feb 24 5:54 pm, Memphis, Weather by CustomWeather, © 2017

Note: Actual official high and low records may vary slightly from our data, if they occured in-between our weather recording intervals... More about our weather records

Advertising

Memphis Weather History for the Previous 24 Hours

Scroll right to see more
 ConditionsComfort  
Time TempWeatherWind HumidityBarometerVisibility
5:54 pm
Fri, Feb 24
66 °FPassing clouds.6 mph68%29.70 "Hg10 mi
4:54 pm67 °FPassing clouds.8 mph68%29.69 "Hg10 mi
3:54 pm69 °FBroken clouds.12 mph66%29.69 "Hg10 mi
3:23 pm69 °FBroken clouds.10 mph66%29.69 "Hg10 mi
2:54 pm69 °FBroken clouds.10 mph66%29.68 "Hg10 mi
1:54 pm67 °FOvercast.15 mph71%29.68 "Hg10 mi
12:54 pm66 °FMostly cloudy.12 mph73%29.69 "Hg10 mi
11:54 am66 °FOvercast.15 mph70%29.70 "Hg10 mi
11:01 am65 °FPartly sunny.20 mph68%29.71 "Hg10 mi
9:54 am67 °FPassing clouds.23 mph68%29.69 "Hg10 mi
8:54 am67 °FPassing clouds.21 mph68%29.67 "Hg10 mi
7:54 am64 °FPassing clouds.20 mph78%29.67 "Hg10 mi
6:54 am61 °FScattered clouds.13 mph83%29.68 "Hg10 mi
5:54 am60 °FScattered clouds.12 mph86%29.66 "Hg10 mi
4:54 am62 °FClear.12 mph80%29.66 "Hg10 mi
3:54 am62 °FClear.12 mph83%29.66 "Hg10 mi
2:54 am63 °FClear.13 mph84%29.65 "Hg10 mi
1:54 am63 °FClear.12 mph87%29.66 "Hg10 mi
12:54 am64 °FClear.12 mph84%29.67 "Hg10 mi
11:54 pm
Thu, Feb 23
64 °FClear.12 mph84%29.65 "Hg10 mi
10:54 pm64 °FClear.12 mph87%29.67 "Hg10 mi
9:54 pm65 °FClear.12 mph85%29.67 "Hg10 mi
8:54 pm67 °FPassing clouds.13 mph79%29.66 "Hg10 mi
7:54 pm69 °FPassing clouds.10 mph59%29.66 "Hg10 mi
6:54 pm71 °FPassing clouds.9 mph55%29.65 "Hg10 mi
Weather by CustomWeather, © 2017

See weather overviewHow to use our weather pages